sat.trackr.live / text

‹ back to catalog

STARLINK-32681

NORAD 62506 · 2025-003V

PAYLOAD ACTIVE UNKNOWN

§ Identity

Operator
Country
US
Launch date
2025-01-06
Launch site
AFETR
Launch vehicle
Mass (kg)
RCS (m²)

Purposes: comms

External: N2YO · Heavens-Above · Gunter

§ Orbital elements

Epoch: 2026-09-21T00:22:50.993472Z

Period
94.27 min
Inclination
43.0017°
Eccentricity
0.0001328
Mean motion
15.27589479 rev/d
Perigee alt
482.1 km
Apogee alt
483.9 km
Semi-major
6,861.2 km
B*
4.5320e-4
RAAN
247.3219°
Arg perigee
253.8550°
Mean anomaly
106.2156°
Rev number
9,675

§ Raw data

STARLINK-326811 62506U 25003V   26264.01586798  .00012233  00000+0  45320-3 0  99902 62506  43.0017 247.3219 0001328 253.8550 106.2156 15.27589479 96751

JSON: /api/v1/satellites/62506 · /tle

For live sub-satellite position, see the globe view (requires WebGL).

§ Visibility from observer

Set your observer location to see the next 7 days of passes ≥ 10°. The values pass through the URL so the page stays shareable.

No JS? Fill the form by hand. The geolocation button needs JavaScript.